Regional Weather Roundup
Issued by NWS

Home | Current Version | Previous Version | Text Only | Print | Product List | Glossary Off
Versions: 1 2 3 4 5 6 7 8 9 10 11 12 13 14 15 16 17 18 19 20 21 22 23 24 25 26 27 28 29 30 31 32 33 34 35 36 37 38 39 40 41 42 43 44 45 46 47 48 49 50

000
ASUS45 KCYS 250910
RWRWY

WYOMING REGIONAL WEATHER ROUNDUP
NATIONAL WEATHER SERVICE CHEYENNE WY
300 AM MDT SUN SEP 25 2016

NOTE:  "FAIR" INDICATES FEW OR NO CLOUDS BELOW 12,000 FEET
WITH NO SIGNIFICANT WEATHER AND/OR OBSTRUCTIONS TO VISIBILITY.

WYZ001-251000-
YELLOWSTONE NATIONAL PARK

CITY           SKY/WX    TMP DP  RH WIND       PRES   REMARKS
LK YELLOWSTONE   N/A     27  26  96 CALM      30.47F
W YELLOWSTONE  NOT AVBL

$$
WYZ002>013-054>058-071-098>099-251000-
NORTHERN WYOMING

CITY           SKY/WX    TMP DP  RH WIND       PRES   REMARKS
JACKSON        FAIR      32  32 100 N7        30.45S WCI  26
CODY           FAIR      39  37  93 W3        30.37S
GREYBULL       CLOUDY    44  43  96 CALM      30.34R FOG
WORLAND        FAIR      42  40  92 SW8       30.33S
SHERIDAN       CLOUDY    50  40  68 NW13      30.32R
BUFFALO        MOCLDY    48  35  60 N22G28    30.31R
GILLETTE       FAIR      45  43  93 W14       30.29R
HULETT         CLOUDY    46  43  87 W9        30.27R
NEWCASTLE      PTSUNNY   45  43  93 NW17G24   30.27S

$$
WYZ014>020-022>026-101>103-251000-
CENTRAL WYOMING

CITY           SKY/WX    TMP DP  RH WIND       PRES   REMARKS
BIG PINEY      FAIR      32  30  92 CALM      30.46R
PINEDALE       FAIR      32  32 100 CALM      30.46S
DUBOIS         FAIR      39  28  65 W22       30.40F WCI  29
LANDER         FAIR      42  35  76 CALM      30.37S
RIVERTON       FAIR      42  39  89 CALM      30.37F
CASPER         MOCLDY    40  36  86 W7        30.38R
DOUGLAS        CLOUDY    47  38  71 NW13      30.35R

$$
WYZ021-027>030-104>119-251000-
SOUTHERN WYOMING

CITY           SKY/WX    TMP DP  RH WIND       PRES   REMARKS
EVANSTON       FAIR      37  29  72 S6        30.47S WCI  32
FORT BRIDGER   FAIR      43  33  68 SW8       30.49S
ROCK SPRINGS   FAIR      36  33  89 S7        30.45R WCI  30
DIXON          FAIR      38  36  95 CALM      30.47S
RAWLINS        FAIR      36  34  92 SW8       30.42F WCI  30
SARATOGA       FAIR      36  36 100 SW12G17   30.44F WCI  27
LARAMIE        FAIR      36  30  79 W7        30.40S WCI  30
CHEYENNE       FAIR      44  32  62 NW17G28   30.35S
TORRINGTON     FAIR      44  38  79 W7        30.29R
PINE BLUFFS    FAIR      43  36  75 NW16      30.33S

$$



USA.gov is the U.S. government's official web portal to all federal, state and local government web resources and services.